Language: 


Des rapports , des résumés tant et plus, au choix de chacun....


Données statistiques de la station
Quotidien Rapport Novembre 5, 2017 Unités:  Anglais    Métrique   les deux
« Précédent Jour
Suivant Jour »
Quotidien Hebdomadaire Mensuel Annuel Actuel
  Haut: Bas: Moyen:
Température: 53.2 °F 32 °F 45.7 °F
Pt de rosée: 50 °F 37.4 °F 42.8 °F
Humidité: 98 % 0 % 88 %
Vitesse du vent: 13.2 mph 0 mph 3.6 mph
Rafales: 13.2 mph - -
Vent:- - WSW
Pression: 30.1 in 0 in -
Précipitation: 0.01 in    
Historical Graphs
 
 
Données statistiques pour Novembre 5, 2017
Heure Température Point de rosée Pression Vent Vitesse du vent Refales Humidité Pluie (taux horaire)
00:04 49.8 °F 50 °F 29.7 in Calm   2.9 mph 98 % 0 in
00:09 49.8 °F 50 °F 29.7 in SW 3.6 mph 5.4 mph 98 % 0 in
00:14 49.8 °F 50 °F 29.7 in West 3.1 mph 5.4 mph 98 % 0 in
00:19 49.8 °F 50 °F 29.7 in West 3.4 mph 5.6 mph 98 % 0 in
00:24 49.8 °F 50 °F 29.7 in WSW 1.6 mph 6.3 mph 98 % 0 in
00:25 49.8 °F 50 °F 29.7 in WNW 4 mph 6.3 mph 98 % 0 in
00:30 49.8 °F 50 °F 29.7 in West 1.3 mph 7.2 mph 98 % 0 in
00:35 49.8 °F 50 °F 29.7 in West 2 mph 7.2 mph 98 % 0 in
00:40 49.8 °F 50 °F 29.7 in WSW 2.5 mph 5.4 mph 98 % 0 in
00:45 49.8 °F 50 °F 29.7 in Calm   4.7 mph 98 % 0 in
00:50 49.8 °F 50 °F 29.7 in Calm   4 mph 98 % 0 in
00:55 49.6 °F 50 °F 29.7 in WNW 7.2 mph 7.2 mph 98 % 0 in
01:00 49.6 °F 50 °F 29.7 in West 4.9 mph 7.2 mph 98 % 0 in
01:05 49.6 °F 50 °F 29.7 in Calm   6.3 mph 98 % 0 in
01:10 49.6 °F 50 °F 29.7 in West 0.9 mph 6.3 mph 98 % 0 in
01:15 49.5 °F 50 °F 29.7 in West 4.9 mph 6 mph 98 % 0 in
01:20 49.5 °F 50 °F 29.7 in WNW 5.6 mph 5.8 mph 98 % 0 in
01:25 49.5 °F 50 °F 29.7 in Calm   5.8 mph 98 % 0 in
01:30 49.3 °F 50 °F 29.7 in Calm   4.7 mph 98 % 0 in
01:35 49.3 °F 50 °F 29.7 in West 4 mph 5.4 mph 98 % 0 in
01:40 49.3 °F 50 °F 29.7 in West 4.9 mph 6 mph 98 % 0 in
01:45 49.1 °F 50 °F 29.7 in West 5.4 mph 6 mph 98 % 0 in
01:50 49.1 °F 50 °F 29.7 in WSW 4.9 mph 5.8 mph 98 % 0 in
01:55 49.1 °F 50 °F 29.7 in West 4.9 mph 5.8 mph 98 % 0 in
02:00 49.1 °F 50 °F 29.7 in West 4 mph 5.6 mph 98 % 0 in
02:05 49.1 °F 50 °F 29.7 in Calm   6 mph 98 % 0 in
02:10 49.1 °F 50 °F 29.7 in WSW 4 mph 6 mph 98 % 0 in
02:15 48.9 °F 48.2 °F 29.7 in Calm   6 mph 98 % 0 in
02:20 48.9 °F 48.2 °F 29.7 in Calm   5.6 mph 98 % 0 in
02:25 48.9 °F 48.2 °F 29.7 in West 2 mph 6 mph 98 % 0 in
02:31 48.9 °F 48.2 °F 29.7 in Calm   6 mph 98 % 0 in
02:36 48.7 °F 48.2 °F 29.7 in West 3.4 mph 6.3 mph 98 % 0 in
02:41 48.7 °F 48.2 °F 29.7 in West 6.5 mph 7.8 mph 98 % 0 in
02:46 48.7 °F 48.2 °F 29.7 in WSW 4.7 mph 7.8 mph 98 % 0 in
02:51 48.7 °F 48.2 °F 29.7 in West 6.5 mph 8.1 mph 98 % 0 in
02:56 48.7 °F 48.2 °F 29.7 in WNW 8.7 mph 8.7 mph 98 % 0 in
03:01 32 °F 48.2 °F 0 in West 4.9 mph 8.5 mph 0 % 0 in
03:06 48.4 °F 48.2 °F 29.7 in West 6.9 mph 9.8 mph 98 % 0 in
03:11 48.4 °F 48.2 °F 29.7 in West 7.6 mph 9.8 mph 98 % 0 in
03:17 48.2 °F 48.2 °F 29.7 in WNW 3.1 mph 8.7 mph 98 % 0 in
03:22 48.2 °F 48.2 °F 29.7 in West 3.4 mph 7.8 mph 98 % 0 in
03:27 48 °F 48.2 °F 29.7 in Calm   6.9 mph 98 % 0 in
03:32 47.8 °F 48.2 °F 29.7 in WSW 4 mph 8.1 mph 98 % 0 in
03:37 47.7 °F 48.2 °F 29.7 in SSW 3.1 mph 8.1 mph 98 % 0 in
03:42 47.5 °F 48.2 °F 29.7 in West 3.8 mph 7.8 mph 98 % 0 in
03:47 47.5 °F 48.2 °F 29.7 in West 2.9 mph 7.4 mph 98 % 0 in
03:53 47.1 °F 48.2 °F 29.7 in West 2.9 mph 7.4 mph 98 % 0 in
03:58 46.9 °F 48.2 °F 29.7 in West 4.3 mph 8.1 mph 98 % 0 in
04:03 46.8 °F 46.4 °F 29.7 in NW 2.7 mph 8.1 mph 98 % 0 in
04:08 46.8 °F 46.4 °F 29.7 in West 6 mph 8.1 mph 98 % 0 in
04:14 46.6 °F 46.4 °F 29.7 in WNW 4.7 mph 7.4 mph 98 % 0 in
04:19 46.2 °F 46.4 °F 29.7 in WSW 6 mph 7.2 mph 98 % 0 in
04:22 46.2 °F 46.4 °F 29.7 in WNW 2.9 mph 7.2 mph 98 % 0 in
04:24 46 °F 46.4 °F 29.7 in West 3.6 mph 7.2 mph 98 % 0 in
04:28 46 °F 46.4 °F 29.7 in West 1.1 mph 6 mph 98 % 0 in
04:33 45.9 °F 46.4 °F 29.7 in Calm   5.6 mph 98 % 0 in
04:38 45.5 °F 46.4 °F 29.7 in West 3.8 mph 5.6 mph 98 % 0 in
04:43 45.3 °F 44.6 °F 29.7 in West 6 mph 6.5 mph 98 % 0 in
04:48 45.1 °F 44.6 °F 29.7 in WNW 3.4 mph 6.5 mph 98 % 0 in
04:53 44.8 °F 44.6 °F 29.7 in WNW 2.5 mph 6 mph 98 % 0 in
04:58 44.4 °F 44.6 °F 29.7 in West 2.9 mph 5.6 mph 98 % 0 in
05:03 44.2 °F 44.6 °F 29.7 in West 2.7 mph 5.6 mph 98 % 0 in
05:08 44.1 °F 44.6 °F 29.7 in Calm   5.8 mph 98 % 0 in
05:13 43.9 °F 44.6 °F 29.7 in West 3.8 mph 5.8 mph 98 % 0 in
05:18 43.7 °F 44.6 °F 29.7 in West 2.2 mph 5.6 mph 98 % 0 in
05:23 43.5 °F 42.8 °F 29.7 in Calm   5.6 mph 98 % 0 in
05:28 43 °F 42.8 °F 29.7 in Calm   4.9 mph 98 % 0 in
05:33 42.6 °F 42.8 °F 29.7 in Calm   3.6 mph 98 % 0 in
05:38 42.4 °F 42.8 °F 29.7 in Calm   4 mph 98 % 0 in
05:43 42.3 °F 42.8 °F 29.8 in Calm   4.9 mph 98 % 0 in
05:49 41.7 °F 42.8 °F 29.8 in Calm   4.9 mph 98 % 0 in
05:54 41.4 °F 41 °F 29.8 in Calm   3.4 mph 98 % 0 in
05:59 41 °F 41 °F 29.7 in Calm     98 % 0 in
06:04 41 °F 41 °F 29.7 in Calm     98 % 0 in
06:09 41 °F 41 °F 29.7 in Calm     98 % 0 in
06:14 40.8 °F 41 °F 29.8 in West 3.6 mph 3.6 mph 98 % 0 in
06:19 40.6 °F 41 °F 29.8 in West 3.6 mph 3.6 mph 98 % 0 in
06:24 40.5 °F 41 °F 29.8 in West 3.6 mph 3.6 mph 98 % 0 in
06:29 40.1 °F 41 °F 29.8 in West 3.6 mph 3.6 mph 98 % 0 in
06:34 39.9 °F 39.2 °F 29.8 in West 3.6 mph 3.6 mph 98 % 0 in
06:39 39.9 °F 39.2 °F 29.8 in West 5.6 mph 5.6 mph 98 % 0 in
06:44 39.9 °F 39.2 °F 29.8 in West 3.6 mph 5.6 mph 98 % 0 in
06:49 39.9 °F 39.2 °F 29.8 in West 4.3 mph 5.6 mph 98 % 0 in
06:54 39.9 °F 39.2 °F 29.8 in WSW 0.9 mph 4.3 mph 98 % 0 in
06:55 39.7 °F 39.2 °F 29.8 in West 2.9 mph 4.3 mph 98 % 0 in
07:00 39.6 °F 39.2 °F 29.8 in West 4.9 mph 4.9 mph 98 % 0 in
07:01 39.4 °F 39.2 °F 29.8 in WSW 4.3 mph 4.9 mph 98 % 0 in
07:06 39.4 °F 39.2 °F 29.8 in West 3.8 mph 4.9 mph 98 % 0 in
07:11 39.4 °F 39.2 °F 29.8 in West 3.8 mph 4.9 mph 98 % 0 in
07:16 39.4 °F 39.2 °F 29.8 in West 3.8 mph 4.9 mph 98 % 0 in
07:21 39.6 °F 39.2 °F 29.8 in Calm   5.4 mph 98 % 0 in
07:26 39.6 °F 39.2 °F 29.8 in Calm   5.4 mph 98 % 0 in
07:31 39.2 °F 39.2 °F 29.8 in Calm     98 % 0 in
07:36 38.8 °F 39.2 °F 29.8 in Calm     98 % 0 in
07:41 38.8 °F 39.2 °F 29.8 in Calm     98 % 0 in
07:46 39 °F 39.2 °F 29.8 in Calm     98 % 0 in
07:51 39 °F 39.2 °F 29.8 in Calm     98 % 0 in
07:56 39.4 °F 39.2 °F 29.8 in Calm     98 % 0 in
08:01 39.4 °F 39.2 °F 29.8 in Calm     98 % 0 in
08:07 39.4 °F 39.2 °F 29.8 in Calm     98 % 0 in
08:12 39.7 °F 39.2 °F 29.8 in Calm     98 % 0 in
08:17 39.9 °F 39.2 °F 29.8 in Calm     98 % 0 in
08:22 40.3 °F 41 °F 29.8 in Calm     98 % 0 in
08:27 40.6 °F 41 °F 29.8 in Calm     98 % 0 in
08:32 41 °F 41 °F 29.8 in Calm     98 % 0 in
08:37 41.2 °F 41 °F 29.8 in Calm     98 % 0 in
08:42 41.5 °F 42.8 °F 29.8 in Calm     98 % 0 in
08:47 41.7 °F 42.8 °F 29.8 in Calm     98 % 0 in
08:52 42.1 °F 42.8 °F 29.8 in Calm     98 % 0 in
08:57 42.6 °F 42.8 °F 29.8 in Calm     98 % 0 in
09:02 42.8 °F 42.8 °F 29.8 in Calm     98 % 0 in
09:07 43.2 °F 42.8 °F 29.8 in Calm     98 % 0 in
09:12 43.3 °F 42.8 °F 29.8 in Calm     98 % 0 in
09:17 43.3 °F 42.8 °F 29.8 in Calm     98 % 0 in
09:22 43.3 °F 42.8 °F 29.8 in Calm     98 % 0 in
09:27 43.3 °F 42.8 °F 29.8 in Calm     98 % 0 in
09:32 43.5 °F 42.8 °F 29.8 in Calm     98 % 0 in
09:37 43.7 °F 44.6 °F 29.8 in Calm     98 % 0 in
09:42 44.1 °F 44.6 °F 29.9 in Calm     98 % 0 in
09:47 44.4 °F 44.6 °F 29.9 in Calm     98 % 0 in
09:53 44.8 °F 44.6 °F 29.9 in Calm     98 % 0 in
09:58 45.3 °F 44.6 °F 29.9 in West 4.9 mph 4.9 mph 98 % 0 in
10:03 45.9 °F 46.4 °F 29.9 in West 4.9 mph 4.9 mph 98 % 0 in
10:08 46.2 °F 46.4 °F 29.9 in West 4.9 mph 4.9 mph 98 % 0 in
10:13 46.8 °F 46.4 °F 29.9 in West 4.9 mph 4.9 mph 98 % 0 in
10:18 47.1 °F 48.2 °F 29.9 in West 4.9 mph 4.9 mph 98 % 0 in
10:23 47.5 °F 48.2 °F 29.9 in West 4.9 mph 4.9 mph 98 % 0 in
10:28 48 °F 48.2 °F 29.9 in West 4.9 mph 4.9 mph 97 % 0 in
10:33 48.4 °F 48.2 °F 29.9 in West 4.9 mph 4.9 mph 96 % 0 in
10:38 48.7 °F 48.2 °F 29.9 in West 4.9 mph 4.9 mph 95 % 0 in
10:43 48.9 °F 48.2 °F 29.9 in West 4.9 mph 4.9 mph 94 % 0 in
10:48 49.5 °F 48.2 °F 29.9 in West 4.9 mph 4.9 mph 93 % 0 in
10:53 50.2 °F 48.2 °F 29.9 in West 4.9 mph 4.9 mph 92 % 0 in
10:58 49.5 °F 46.4 °F 29.9 in West 4.9 mph 4.9 mph 85 % 0 in
11:03 49.1 °F 44.6 °F 29.9 in NNW 2.7 mph 2.7 mph 84 % 0 in
11:08 48.9 °F 44.6 °F 29.9 in NNW 2.7 mph 2.7 mph 84 % 0 in
11:18 49.6 °F 46.4 °F 29.9 in Calm   4 mph 86 % 0 in
11:23 50.5 °F 46.4 °F 29.9 in Calm   4 mph 86 % 0 in
11:28 50.5 °F 44.6 °F 29.9 in WNW 8.5 mph 8.5 mph 81 % 0 in
11:32 51.1 °F 46.4 °F 29.9 in WNW 5.8 mph 8.5 mph 83 % 0 in
11:37 51.3 °F 46.4 °F 29.9 in West 6.5 mph 8.7 mph 82 % 0 in
11:42 51.4 °F 46.4 °F 29.9 in West 6.3 mph 8.7 mph 81 % 0 in
11:47 50.2 °F 42.8 °F 29.9 in West 6.3 mph 6.5 mph 74 % 0 in
11:53 50 °F 42.8 °F 29.9 in West 6.3 mph 6.3 mph 75 % 0 in
11:58 50.5 °F 44.6 °F 29.9 in West 6.3 mph 6.3 mph 77 % 0 in
12:03 50.7 °F 42.8 °F 29.9 in West 6.3 mph 6.3 mph 76 % 0 in
12:08 51.6 °F 44.6 °F 29.9 in West 6.3 mph 6.3 mph 76 % 0 in
12:18 53.1 °F 44.6 °F 29.9 in West 6.3 mph 6.3 mph 74 % 0 in
12:23 52.5 °F 42.8 °F 29.9 in West 6.3 mph 6.3 mph 69 % 0 in
12:28 52.3 °F 42.8 °F 29.9 in West 6.3 mph 6.3 mph 69 % 0 in
12:33 51.8 °F 41 °F 29.9 in West 6.3 mph 6.3 mph 67 % 0 in
12:38 51.6 °F 41 °F 29.9 in West 6.3 mph 6.3 mph 67 % 0 in
12:43 52.5 °F 42.8 °F 29.9 in WSW 5.4 mph 5.4 mph 70 % 0 in
12:48 52.5 °F 42.8 °F 29.9 in WSW 5.4 mph 5.4 mph 70 % 0 in
12:53 52.7 °F 42.8 °F 29.9 in WSW 5.4 mph 5.4 mph 67 % 0 in
12:58 52.9 °F 42.8 °F 29.9 in WSW 5.4 mph 5.4 mph 67 % 0 in
13:03 52.7 °F 41 °F 29.9 in WSW 5.4 mph 5.4 mph 63 % 0 in
13:08 52.7 °F 42.8 °F 29.9 in WSW 5.4 mph 5.4 mph 65 % 0 in
13:13 51.8 °F 41 °F 29.9 in WSW 5.4 mph 5.4 mph 65 % 0 in
13:18 52.2 °F 42.8 °F 29.9 in WSW 5.4 mph 5.4 mph 67 % 0 in
13:23 52.3 °F 42.8 °F 29.9 in WSW 5.4 mph 5.4 mph 67 % 0 in
13:28 52 °F 39.2 °F 29.9 in WSW 5.4 mph 5.4 mph 61 % 0 in
13:33 52 °F 41 °F 29.9 in SSW 13.2 mph 13.2 mph 64 % 0 in
13:38 52.5 °F 41 °F 29.9 in SSW 13.2 mph 13.2 mph 65 % 0 in
13:43 52.3 °F 41 °F 29.9 in SSW 13.2 mph 13.2 mph 65 % 0 in
13:49 52.3 °F 41 °F 29.9 in SSW 13.2 mph 13.2 mph 63 % 0 in
13:54 52.3 °F 41 °F 29.9 in SSW 13.2 mph 13.2 mph 64 % 0 in
13:59 52.5 °F 41 °F 29.9 in SSW 13.2 mph 13.2 mph 64 % 0 in
14:04 52.3 °F 41 °F 29.9 in SSW 13.2 mph 13.2 mph 64 % 0 in
14:09 52.3 °F 41 °F 29.9 in SSW 13.2 mph 13.2 mph 63 % 0 in
14:14 51.8 °F 39.2 °F 29.9 in SSW 13.2 mph 13.2 mph 61 % 0 in
14:19 52 °F 39.2 °F 29.9 in SSW 13.2 mph 13.2 mph 61 % 0 in
14:24 51.1 °F 39.2 °F 29.9 in SSW 13.2 mph 13.2 mph 62 % 0 in
14:29 51.4 °F 39.2 °F 29.9 in SSW 13.2 mph 13.2 mph 63 % 0 in
14:34 52 °F 39.2 °F 29.9 in SSW 13.2 mph 13.2 mph 60 % 0 in
14:39 52.9 °F 41 °F 29.9 in SSW 13.2 mph 13.2 mph 62 % 0 in
14:44 53.2 °F 39.2 °F 29.9 in SSW 13.2 mph 13.2 mph 60 % 0 in
14:49 52.2 °F 37.4 °F 29.9 in SSW 13.2 mph 13.2 mph 57 % 0 in
14:54 51.1 °F 37.4 °F 29.9 in SSW 13.2 mph 13.2 mph 58 % 0 in
14:59 50.5 °F 37.4 °F 29.9 in SSW 13.2 mph 13.2 mph 61 % 0 in
15:04 51.3 °F 39.2 °F 29.9 in SSW 13.2 mph 13.2 mph 62 % 0 in
15:09 51.4 °F 39.2 °F 29.9 in SSW 13.2 mph 13.2 mph 64 % 0 in
15:14 52 °F 41 °F 29.9 in SSW 13.2 mph 13.2 mph 65 % 0 in
15:19 51.8 °F 39.2 °F 29.9 in WSW 4 mph 4 mph 62 % 0 in
15:24 51.8 °F 39.2 °F 29.9 in WSW 4 mph 4 mph 62 % 0 in
15:29 51.8 °F 39.2 °F 29.9 in WSW 4 mph 4 mph 62 % 0 in
15:34 52 °F 39.2 °F 29.9 in WSW 4 mph 4 mph 63 % 0 in
15:39 51.8 °F 39.2 °F 29.9 in WSW 4 mph 4 mph 62 % 0 in
15:45 50.9 °F 37.4 °F 29.9 in WSW 4 mph 4 mph 61 % 0 in
15:50 50.7 °F 39.2 °F 29.9 in WSW 4 mph 4 mph 63 % 0 in
15:55 50.2 °F 39.2 °F 29.9 in SSW 3.4 mph 3.4 mph 64 % 0 in
16:00 49.8 °F 39.2 °F 29.9 in SSW 3.4 mph 3.4 mph 65 % 0 in
16:05 49.6 °F 39.2 °F 29.9 in SSW 3.4 mph 3.4 mph 67 % 0 in
16:10 49.3 °F 39.2 °F 29.9 in SSW 3.4 mph 3.4 mph 68 % 0 in
16:11 49.3 °F 39.2 °F 29.9 in SSW 3.4 mph 3.4 mph 68 % 0 in
16:16 48.9 °F 39.2 °F 29.9 in SSW 3.4 mph 3.4 mph 68 % 0 in
16:21 48.7 °F 39.2 °F 29.9 in SSW 3.4 mph 3.4 mph 69 % 0 in
16:26 48.4 °F 39.2 °F 29.9 in SSW 3.4 mph 3.4 mph 70 % 0 in
16:27 48.4 °F 39.2 °F 29.9 in SSW 3.4 mph 3.4 mph 70 % 0 in
16:32 48.2 °F 39.2 °F 29.9 in SSW 3.4 mph 3.4 mph 71 % 0 in
16:37 47.8 °F 41 °F 29.9 in SSW 3.4 mph 3.4 mph 72 % 0 in
16:42 47.7 °F 39.2 °F 29.9 in SSW 3.4 mph 3.4 mph 73 % 0 in
16:47 47.3 °F 41 °F 29.9 in SSW 3.4 mph 3.4 mph 74 % 0 in
16:52 47.1 °F 39.2 °F 29.9 in SSW 3.4 mph 3.4 mph 74 % 0 in
16:57 46.9 °F 39.2 °F 29.9 in SSW 3.4 mph 3.4 mph 74 % 0 in
17:02 46.8 °F 39.2 °F 29.9 in Calm     75 % 0 in
17:07 46.4 °F 39.2 °F 29.9 in WSW 5.6 mph 5.6 mph 75 % 0 in
17:12 46 °F 39.2 °F 30 in WSW 5.6 mph 5.6 mph 76 % 0 in
17:17 45.9 °F 39.2 °F 30 in WSW 5.6 mph 5.6 mph 77 % 0 in
17:22 45.7 °F 39.2 °F 30 in WSW 5.6 mph 5.6 mph 78 % 0 in
17:27 45.5 °F 39.2 °F 30 in WSW 5.6 mph 5.6 mph 79 % 0 in
17:32 45.5 °F 41 °F 30 in WSW 5.6 mph 5.6 mph 80 % 0 in
17:37 45.7 °F 41 °F 30 in WSW 5.6 mph 5.6 mph 82 % 0 in
17:42 45.9 °F 41 °F 30 in WSW 5.6 mph 5.6 mph 83 % 0 in
17:47 45.5 °F 41 °F 30 in WSW 5.6 mph 5.6 mph 84 % 0 in
17:52 45.3 °F 41 °F 30 in WSW 5.6 mph 5.6 mph 84 % 0 in
17:57 45.1 °F 41 °F 30 in WSW 5.6 mph 5.6 mph 84 % 0 in
18:03 45 °F 41 °F 30 in WSW 5.6 mph 5.6 mph 85 % 0 in
18:08 45 °F 41 °F 30 in WSW 5.6 mph 5.6 mph 85 % 0 in
18:13 45.1 °F 41 °F 30 in WSW 5.6 mph 5.6 mph 86 % 0 in
18:18 45.1 °F 41 °F 30 in WSW 3.8 mph 3.8 mph 86 % 0 in
18:23 45 °F 41 °F 30 in WSW 3.8 mph 3.8 mph 86 % 0 in
18:28 44.8 °F 41 °F 30 in WSW 3.8 mph 3.8 mph 86 % 0 in
18:33 44.6 °F 41 °F 30 in WSW 3.8 mph 3.8 mph 86 % 0 in
18:38 44.2 °F 41 °F 30 in WSW 3.8 mph 3.8 mph 87 % 0 in
18:43 43.9 °F 41 °F 30 in WSW 3.8 mph 3.8 mph 87 % 0 in
18:48 43.5 °F 41 °F 30 in Calm     87 % 0 in
18:53 43.3 °F 41 °F 30 in Calm     87 % 0.01 in
18:58 43.2 °F 41 °F 30 in Calm     88 % 0.01 in
19:03 43 °F 41 °F 30 in Calm     89 % 0.01 in
19:08 42.6 °F 41 °F 30 in Calm     89 % 0.01 in
19:13 42.4 °F 41 °F 30 in Calm     90 % 0.01 in
19:19 42.4 °F 41 °F 30 in Calm     93 % 0.01 in
19:24 42.4 °F 41 °F 30 in Calm     92 % 0.01 in
19:29 42.3 °F 41 °F 30 in Calm     92 % 0.01 in
19:34 41.9 °F 41 °F 30 in Calm     91 % 0.01 in
19:39 41.7 °F 39.2 °F 30 in Calm     91 % 0.01 in
19:44 41.5 °F 39.2 °F 30 in Calm     91 % 0.01 in
19:49 41.4 °F 39.2 °F 30 in Calm     92 % 0 in
19:54 41.4 °F 39.2 °F 30 in Calm     93 % 0 in
19:59 41.5 °F 41 °F 30 in Calm     93 % 0 in
20:04 41.4 °F 39.2 °F 30 in Calm     93 % 0 in
20:09 41.2 °F 39.2 °F 30 in Calm     93 % 0 in
20:14 41 °F 39.2 °F 30 in Calm     93 % 0 in
20:19 41 °F 39.2 °F 30 in Calm     93 % 0 in
20:25 41.2 °F 39.2 °F 30 in Calm     94 % 0 in
20:30 41.2 °F 39.2 °F 30 in Calm     94 % 0 in
20:35 41.2 °F 41 °F 30 in Calm     95 % 0 in
20:40 41.2 °F 41 °F 30 in Calm     95 % 0 in
20:45 41.2 °F 41 °F 30 in Calm     95 % 0 in
20:50 41.2 °F 41 °F 30 in Calm     95 % 0 in
20:55 41 °F 41 °F 30 in Calm     95 % 0 in
21:00 41 °F 41 °F 30 in Calm     95 % 0 in
21:05 41 °F 41 °F 30 in Calm     95 % 0 in
21:10 41.2 °F 41 °F 30 in West 3.1 mph 3.4 mph 96 % 0 in
21:15 41.4 °F 41 °F 30 in West 3.6 mph 4.3 mph 96 % 0 in
21:20 41.4 °F 41 °F 30 in West 3.1 mph 4.3 mph 96 % 0 in
21:25 41.2 °F 41 °F 30 in West 6 mph 6 mph 96 % 0 in
21:30 41.4 °F 41 °F 30 in West 5.4 mph 6 mph 96 % 0 in
21:35 41.4 °F 41 °F 30 in West 0.9 mph 6 mph 96 % 0 in
21:40 41.5 °F 41 °F 30 in Calm   5.4 mph 96 % 0 in
21:45 41.5 °F 41 °F 30 in Calm     96 % 0 in
21:50 42.1 °F 42.8 °F 30 in NNW 6.3 mph 6.5 mph 97 % 0 in
21:55 42.1 °F 42.8 °F 30 in WNW 2.2 mph 6.5 mph 97 % 0 in
22:00 42.1 °F 42.8 °F 30 in WSW 3.8 mph 6.3 mph 97 % 0 in
22:05 41.9 °F 42.8 °F 30 in Calm   5.6 mph 97 % 0 in
22:10 41.5 °F 41 °F 30.1 in West 3.1 mph 5.6 mph 96 % 0 in
22:15 41.5 °F 41 °F 30.1 in West 0.9 mph 4.9 mph 96 % 0 in
22:20 41.2 °F 41 °F 30.1 in Calm   4.9 mph 95 % 0 in
22:26 41 °F 41 °F 30.1 in Calm   3.6 mph 95 % 0 in
22:31 40.8 °F 41 °F 30.1 in Calm   3.6 mph 96 % 0 in
22:36 40.8 °F 41 °F 30.1 in West 3.8 mph 3.8 mph 96 % 0 in
22:41 40.6 °F 39.2 °F 30.1 in West 3.8 mph 3.8 mph 96 % 0 in
22:46 40.6 °F 39.2 °F 30.1 in West 3.8 mph 3.8 mph 96 % 0 in
22:51 40.6 °F 39.2 °F 30.1 in West 3.8 mph 3.8 mph 97 % 0 in
22:56 40.8 °F 41 °F 30.1 in West 3.8 mph 3.8 mph 97 % 0 in
23:01 41 °F 41 °F 30.1 in West 3.8 mph 3.8 mph 97 % 0 in
23:06 41 °F 41 °F 30.1 in West 3.8 mph 3.8 mph 97 % 0 in
23:11 41.2 °F 41 °F 30.1 in West 3.8 mph 3.8 mph 97 % 0 in
23:16 41.2 °F 41 °F 30.1 in West 3.8 mph 3.8 mph 97 % 0 in
23:21 41.2 °F 41 °F 30.1 in West 3.8 mph 3.8 mph 97 % 0 in
23:26 41.2 °F 41 °F 30.1 in West 3.8 mph 3.8 mph 97 % 0 in
23:31 41.4 °F 41 °F 30.1 in West 3.8 mph 3.8 mph 97 % 0 in
23:36 41.4 °F 41 °F 30.1 in West 3.8 mph 3.8 mph 97 % 0 in
23:41 41.4 °F 41 °F 30.1 in West 3.8 mph 3.8 mph 97 % 0 in
23:46 41.4 °F 41 °F 30.1 in West 3.8 mph 3.8 mph 97 % 0 in
23:51 41.5 °F 41 °F 30.1 in West 3.8 mph 3.8 mph 97 % 0 in
23:56 41.7 °F 42.8 °F 30.1 in West 3.8 mph 3.8 mph 98 % 0 in
Le Gheer Warneton
Courtoisie de Weather Underground - 2.25 mb

Mise a jour : 17-12-17 08:50:15
Généré par Cumulus 1.9.4 (1099)